ITY621 KLAX-LIRF

Flight info

Callsign ITY621
Flight time N/A
Altitude 37000
Route ORCKA5 LAS DCT BAWER DCT LARVE DCT EKR DCT LAR J157 BFF DCT ABR DCT AGLIN DCT 5130N08000W/N0498F390 5430N07000W DCT VESMI/M085F390 DCT 59N050W 5930N04000W 5930N03000W 58N020W DCT SUNOT/N0482F390 DCT KESIX DCT LUTOV DCT NIPIT/N0486F410 DCT LIPGO DCT NUCHU DCT BOGNA UL612 OGULO DCT OKASI DCT OKEKO DCT MOU DCT MADIV DCT MOKIP DCT TUFTA DCT KOGAS DCT MEDAM DCT NITAM DCT MOGBO DCT ELB/N0481F400 DCT ELKAP
Aircraft A359/H-SDE2E3GHIJ3J4J5LM1ORWXY/LB1D1

Departure

Time 2026-05-04 01:37
Airport Los Angeles International Airport (KLAX)

Arrival

Time N/A
Airport Rome–Fiumicino Leonardo da Vinci International Airport (LIRF)
Time Latitude Longitude Altitude Speed Heading
2026-05-04 01:18 33.94521 -118.41143 99 ft 0 kts 96°
2026-05-04 01:27 33.94522 -118.41156 99 ft 4 kts 96°
2026-05-04 01:28 33.94525 -118.41184 99 ft 2 kts 96°
2026-05-04 01:28 33.94525 -118.41215 100 ft 4 kts 70°
2026-05-04 01:28 33.94511 -118.41240 99 ft 4 kts 30°
2026-05-04 01:28 33.94486 -118.41250 100 ft 4 kts
2026-05-04 01:29 33.94460 -118.41250 101 ft 4 kts 353°
2026-05-04 01:29 33.94434 -118.41246 99 ft 3 kts 353°
2026-05-04 01:29 33.94431 -118.41245 99 ft 0 kts 353°
2026-05-04 01:32 33.94431 -118.41246 100 ft 2 kts 353°
2026-05-04 01:32 33.94493 -118.41255 99 ft 11 kts 353°
2026-05-04 01:33 33.94573 -118.41266 99 ft 14 kts 354°
2026-05-04 01:33 33.94703 -118.41286 101 ft 23 kts 352°
2026-05-04 01:33 33.94791 -118.41249 100 ft 8 kts 64°
2026-05-04 01:33 33.94806 -118.41159 103 ft 14 kts 82°
2026-05-04 01:34 33.94821 -118.41031 102 ft 20 kts 83°
2026-05-04 01:34 33.94842 -118.40807 102 ft 32 kts 83°
2026-05-04 01:34 33.94869 -118.40544 102 ft 31 kts 86°
2026-05-04 01:34 33.94895 -118.40291 100 ft 30 kts 83°
2026-05-04 01:35 33.94920 -118.40041 102 ft 30 kts 83°
2026-05-04 01:35 33.95003 -118.39910 100 ft 16 kts 355°
2026-05-04 01:35 33.95041 -118.39955 102 ft 3 kts 264°
2026-05-04 01:35 33.95039 -118.39976 99 ft 0 kts 265°
2026-05-04 01:36 33.95038 -118.39979 102 ft 4 kts 265°
2026-05-04 01:36 33.95010 -118.40253 104 ft 63 kts 263°
2026-05-04 01:36 33.94934 -118.41003 103 ft 116 kts 263°
2026-05-04 01:36 33.94815 -118.42157 113 ft 160 kts 262°
2026-05-04 01:37 33.94674 -118.43455 693 ft 150 kts 261°
2026-05-04 01:37 33.94507 -118.44660 1303 ft 145 kts 259°
2026-05-04 01:37 33.94355 -118.45903 1604 ft 156 kts 261°
2026-05-04 01:37 33.94206 -118.47270 1820 ft 174 kts 261°
2026-05-04 01:38 33.94018 -118.48785 2042 ft 192 kts 258°
2026-05-04 01:38 33.93771 -118.50424 2345 ft 204 kts 255°
2026-05-04 01:38 33.93497 -118.52154 2713 ft 215 kts 257°
2026-05-04 01:38 33.93198 -118.53964 3083 ft 226 kts 253°
2026-05-04 01:39 33.92815 -118.55838 3508 ft 234 kts 251°
2026-05-04 01:39 33.92468 -118.57781 3983 ft 240 kts 254°
2026-05-04 01:39 33.92135 -118.59744 4601 ft 239 kts 255°
2026-05-04 01:39 33.91814 -118.61676 5258 ft 237 kts 257°
2026-05-04 01:40 33.91488 -118.63617 5906 ft 237 kts 256°
2026-05-04 01:40 33.90905 -118.65473 6434 ft 241 kts 235°
2026-05-04 01:40 33.89701 -118.66857 6968 ft 244 kts 207°
2026-05-04 01:40 33.88042 -118.67235 7513 ft 249 kts 168°
2026-05-04 01:41 33.86431 -118.66493 8148 ft 252 kts 149°
2026-05-04 01:41 33.85232 -118.64947 8639 ft 260 kts 119°
2026-05-04 01:41 33.84789 -118.62820 9116 ft 269 kts 86°
2026-05-04 01:41 33.85316 -118.60673 9657 ft 272 kts 59°
2026-05-04 01:42 33.86356 -118.58722 10094 ft 281 kts 55°
2026-05-04 01:42 33.87463 -118.56739 10540 ft 290 kts 58°
2026-05-04 01:42 33.88498 -118.54579 10806 ft 306 kts 63°
2026-05-04 01:42 33.89491 -118.52270 11063 ft 323 kts 64°
2026-05-04 01:43 33.90524 -118.49796 11315 ft 339 kts 65°
2026-05-04 01:43 33.91602 -118.47189 11583 ft 355 kts 65°
2026-05-04 01:43 33.92747 -118.44480 11851 ft 370 kts 60°
2026-05-04 01:43 33.93249 -118.43473 11951 ft 376 kts 57°
2026-05-04 01:44 33.94740 -118.40819 12208 ft 390 kts 55°
2026-05-04 01:44 33.96320 -118.38093 12433 ft 402 kts 55°
2026-05-04 01:44 33.97937 -118.35279 12651 ft 414 kts 55°
2026-05-04 01:44 33.99587 -118.32385 13050 ft 421 kts 56°
2026-05-04 01:45 34.01249 -118.29459 13488 ft 426 kts 55°
2026-05-04 01:45 34.02911 -118.26538 13935 ft 429 kts 55°
2026-05-04 01:45 34.06330 -118.20518 14683 ft 441 kts 53°
2026-05-04 01:46 34.08093 -118.17472 15068 ft 445 kts 53°
2026-05-04 01:46 34.09865 -118.14381 15442 ft 449 kts 56°
2026-05-04 01:46 34.11601 -118.11226 15843 ft 453 kts 56°
2026-05-04 01:46 34.13359 -118.08032 16183 ft 459 kts 56°
2026-05-04 01:47 34.15142 -118.04822 16583 ft 462 kts 55°
2026-05-04 01:47 34.16949 -118.01584 16949 ft 467 kts 54°
2026-05-04 01:47 34.18782 -117.98321 17355 ft 472 kts 54°
2026-05-04 01:47 34.20636 -117.95026 17781 ft 475 kts 53°
2026-05-04 01:48 34.22500 -117.91703 18111 ft 479 kts 54°
2026-05-04 01:48 34.24377 -117.88345 18350 ft 486 kts 54°
2026-05-04 01:48 34.26274 -117.84951 18774 ft 488 kts 54°
2026-05-04 01:48 34.28173 -117.81563 19249 ft 489 kts 54°
2026-05-04 01:49 34.30089 -117.78140 19648 ft 492 kts 54°
2026-05-04 01:49 34.32010 -117.74702 20053 ft 493 kts 54°
2026-05-04 01:49 34.33886 -117.71351 20410 ft 496 kts 54°
2026-05-04 01:49 34.35902 -117.67803 20719 ft 501 kts 51°
2026-05-04 01:50 34.37961 -117.64393 21142 ft 502 kts 50°
2026-05-04 01:50 34.40045 -117.60977 21480 ft 506 kts 50°